ONEWEB-0023 (45136 NORAD) Tracking and Keplerian Element Data

This shows tracking and keplerian element data for the satellite.

Feedback or suggestion? Click here.




ElementValue
Catalog45136
NameONEWEB-0023
Epoch Orbit918
Epoch Day93.41795769
Epoch Year2020
RAAN145.6453
Inclination87.4748
Eccentricity0.0022765
Argument of Perigee94.9397
Mean Anonmoly265.4424
Mean Motion14.77867015
Decay Rate-0.00347768
L11 45136U 20008F 20093.41795769 -.00347768 00000-0 -50681-1 0 9999
L22 45136 87.4748 145.6453 0022765 94.9397 265.4424 14.77867015 9181

Live tracking and technical data element details for ONEWEB-0023 (NORAD 45136). ONEWEB-0023 can be tracked NOW for your location showing map with azimuth and elevation plus other details from your city location.

Track the satellite on the map from your city or location and see movement details for azimuth, elevation, latitude, longitude, range, height, and movement on the map or in text.







IsCatalogInMostPopularTable: catalog: 45136, numindb: 9
Update: records affected: 1



GetName: 45136 ONEWEB-0023

Hit Count: updated at: Sun, 05 Apr 2020 19:02:39 GMT